Probability
0 0 0 0 0 0 0 0 0 0 0 0 3 10 13 23 26 26 19 23 23 29 23 26 29 29 29 42 42 39 42 39 35 39 35 42 42 42 42 39 45 42 39 35
0 0 0 0 0 0 0 0 0 0 0 3 3 6 16 26 29 23 19 19 19 19 23 23 23 26 29 39 39 42 42 39 45 42 35 26 29 32 35 39 42 42 39 39
0 0 0 0 0 0 0 0 0 0 3 3 6 13 16 26 23 26 23 16 16 19 16 16 23 29 26 35 35 32 39 39 39 35 26 23 26 29 23 29 35 39 39 39
0 0 0 0 0 0 0 0 3 3 3 6 13 16 19 19 16 19 19 19 19 23 23 23 23 19 23 29 32 29 35 35 35 32 32 29 29 26 26 23 26 26 29 29
0 0 0 0 0 0 0 0 3 6 13 10 13 13 13 16 16 19 16 19 19 19 19 16 23 23 16 23 26 29 29 35 32 29 29 32 32 29 19 19 16 16 23 19
0 0 0 0 0 0 3 3 6 13 16 6 6 10 16 10 13 16 16 19 19 19 16 16 19 19 19 19 19 23 26 29 29 29 32 35 32 29 23 16 16 16 19 16
0 0 0 0 0 0 0 3 3 13 16 10 6 13 10 10 10 13 13 19 19 19 16 13 16 19 16 19 19 19 19 23 26 29 29 32 26 23 19 19 19 10 10 13
0 0 0 0 0 0 0 0 3 6 3 10 6 6 10 10 10 16 16 16 16 13 13 16 16 16 16 16 16 19 19 19 19 23 26 23 23 19 19 16 16 10 10 13
0 0 0 0 0 0 0 0 0 3 3 3 3 13 13 6 6 16 6 6 6 10 13 16 16 13 16 16 16 16 16 16 19 13 10 16 23 16 16 16 16 16 13 13
0 0 0 0 0 0 0 0 0 0 0 0 3 3 3 6 6 10 6 6 6 6 16 16 16 16 16 13 13 13 10 10 10 10 10 10 13 10 13 13 16 13 13 13
0 0 0 3 0 0 0 0 0 0 0 3 0 3 0 3 3 3 3 3 6 10 13 16 16 13 13 10 10 10 6 6 6 10 6 6 6 10 10 10 10 6 10 10
0 0 0 0 3 0 0 0 0 0 0 3 3 0 0 0 0 0 0 3 6 6 13 13 6 10 10 6 6 6 6 6 6 6 6 6 6 6 3 6 3 0 0 3
0 0 0 0 0 0 0 0 0 0 0 3 3 3 6 3 3 3 3 3 6 10 10 6 6 6 6 6 6 6 6 6 6 6 6 6 6 6 3 0 0 0 0 0
0 0 0 0 0 0 0 0 0 0 3 3 3 3 3 3 3 3 3 3 3 10 6 6 6 6 6 6 6 6 6 6 6 6 6 6 10 10 6 3 0 0 0 0
0 0 0 0 0 0 0 0 0 0 0 0 0 0 0 3 3 3 3 3 3 3 6 6 6 6 6 6 6 6 6 6 6 6 6 10 6 6 3 0 0 0 0 0
0 0 0 0 0 0 0 0 3 3 3 3 0 0 0 0 0 0 0 0 0 0 3 6 6 6 6 6 10 6 6 6 3 0 0 0 0 0 0 0 0 0 0 0
0 0 0 0 0 0 0 0 3 0 0 0 0 0 0 0 0 0 0 0 0 0 0 3 3 6 6 6 6 6 3 0 0 0 0 0 0 0 0 0 0 0 0 0
0 0 0 0 0 0 0 0 0 0 0 0 0 0 0 0 0 0 0 0 0 0 0 0 0 3 3 3 3 0 0 0 0 0 0 0 0 0 0 0 0 0 0 0
0 0 0 0 0 0 0 0 0 0 0 0 0 0 0 0 0 0 0 0 0 0 0 0 0 0 0 0 0 0 0 0 0 0 0 0 0 0 0 0 0 0 0 0
0 0 0 0 0 0 0 0 0 0 0 0 0 0 0 0 0 0 0 0 0 0 0 0 0 0 0 0 0 0 0 0 0 0 0 0 0 0 0 0 0 0 0 0
0 0 0 0 0 0 0 0 0 0 0 0 0 0 0 0 0 0 0 0 0 0 0 0 0 0 0 3 0 0 0 0 0 3 3 0 0 0 0 0 0 0 0 0
0 0 0 0 0 0 0 0 0 0 0 0 0 0 0 0 0 0 0 0 0 0 0 0 0 0 0 3 3 3 3 3 3 3 0 0 0 0 0 0 0 0 0 0
0 0 0 0 0 0 0 0 0 0 0 0 0 0 0 0 0 0 0 0 0 0 0 0 0 0 0 0 0 0 3 3 0 0 0 0 0 0 0 0 0 0 0 0
0 0 0 0 0 0 0 0 0 0 0 0 0 0 0 0 0 0 0 0 0 0 0 0 0 0 0 0 0 0 0 0 0 0 0 0 0 0 0 0 0 0 0 0
0 0 0 0 0 0 0 0 0 0 0 0 0 0 0 0 0 0 0 0 0 0 0 0 0 0 0 0 0 0 0 0 0 0 0 0 0 0 0 0 0 0 0 0
0 0 0 0 0 0 0 0 0 0 0 0 0 0 0 0 0 0 0 0 0 0 0 0 0 0 0 0 0 0 0 0 0 0 0 0 0 0 0 0 0 0 0 0
0 0 0 0 0 0 0 0 0 0 0 0 0 0 0 0 0 0 0 0 0 0 0 0 0 0 0 0 0 0 0 0 0 0 0 0 0 0 0 0 0 0 0 0
Height
5842 5844 5845 5846 5847 5848 5848 5848 5849 5851 5851 5853 5853 5854 5854 5855 5855 5855 5856 5856 5856 5857 5857 5858 5857 5857 5856 5856 5856 5855 5854 5853 5853 5852 5851 5850 5850 5850 5849 5849 5848 5847 5847 5847
5834 5836 5837 5838 5840 5841 5842 5842 5843 5844 5845 5847 5847 5847 5848 5848 5848 5849 5849 5849 5849 5849 5849 5850 5850 5849 5849 5848 5848 5847 5846 5845 5844 5843 5842 5841 5841 5841 5841 5841 5840 5839 5839 5839
5826 5827 5828 5831 5833 5833 5834 5835 5836 5837 5839 5840 5840 5840 5841 5841 5841 5841 5841 5841 5841 5841 5841 5841 5840 5840 5840 5839 5839 5839 5838 5837 5836 5834 5833 5833 5833 5833 5832 5832 5832 5831 5831 5831
5817 5819 5820 5825 5825 5826 5826 5828 5829 5830 5831 5832 5833 5833 5833 5833 5833 5833 5833 5833 5833 5833 5832 5831 5831 5830 5829 5829 5829 5829 5828 5827 5826 5825 5825 5824 5824 5824 5823 5823 5823 5822 5822 5821
5808 5809 5811 5815 5816 5818 5819 5820 5821 5822 5823 5824 5824 5825 5825 5825 5825 5824 5824 5824 5824 5823 5823 5822 5822 5821 5820 5819 5818 5818 5817 5817 5816 5815 5815 5815 5814 5814 5814 5814 5813 5813 5812 5812
5799 5800 5802 5807 5808 5809 5811 5811 5812 5813 5814 5815 5816 5816 5817 5817 5816 5816 5815 5815 5814 5814 5813 5812 5812 5811 5810 5809 5808 5807 5806 5806 5806 5805 5805 5805 5804 5804 5803 5803 5803 5803 5802 5802
5790 5791 5793 5797 5799 5801 5803 5804 5804 5805 5806 5806 5806 5807 5808 5807 5807 5806 5806 5805 5805 5804 5804 5803 5802 5801 5800 5799 5798 5798 5797 5796 5795 5795 5795 5794 5794 5793 5793 5792 5793 5793 5792 5792
5781 5783 5787 5787 5790 5792 5793 5794 5795 5796 5797 5797 5797 5797 5797 5797 5797 5797 5796 5795 5795 5794 5794 5793 5791 5790 5789 5788 5788 5787 5786 5785 5784 5784 5784 5784 5783 5782 5782 5782 5782 5782 5782 5782
5773 5775 5776 5778 5780 5782 5784 5785 5786 5787 5788 5788 5788 5788 5788 5788 5787 5787 5786 5785 5784 5784 5783 5782 5781 5780 5779 5778 5777 5776 5775 5775 5774 5773 5773 5772 5772 5771 5771 5771 5771 5771 5771 5772
5764 5765 5767 5769 5771 5773 5775 5775 5776 5777 5777 5778 5778 5778 5778 5778 5777 5777 5776 5775 5774 5773 5772 5771 5770 5769 5768 5767 5766 5765 5765 5764 5763 5763 5762 5762 5761 5760 5760 5761 5760 5760 5760 5760
5755 5758 5759 5761 5763 5764 5765 5766 5766 5767 5767 5767 5767 5767 5768 5767 5766 5766 5765 5765 5764 5763 5762 5760 5759 5758 5757 5757 5756 5755 5754 5754 5753 5752 5751 5750 5750 5749 5749 5750 5750 5750 5750 5750
5748 5751 5752 5754 5754 5755 5756 5756 5756 5757 5757 5757 5757 5757 5757 5757 5757 5756 5755 5755 5754 5753 5752 5751 5750 5749 5748 5747 5746 5745 5744 5743 5741 5741 5740 5740 5739 5739 5739 5739 5739 5738 5738 5738
5741 5742 5743 5744 5746 5746 5746 5747 5747 5747 5747 5747 5747 5747 5748 5748 5747 5747 5746 5745 5744 5743 5742 5741 5740 5739 5738 5737 5736 5735 5733 5732 5731 5730 5730 5729 5729 5729 5729 5729 5728 5727 5727 5727
5733 5734 5735 5736 5736 5737 5737 5737 5738 5738 5738 5738 5738 5738 5738 5738 5738 5737 5736 5735 5734 5734 5733 5732 5730 5729 5728 5727 5726 5724 5723 5721 5720 5719 5719 5718 5718 5718 5718 5717 5717 5716 5716 5716
5726 5727 5727 5728 5728 5728 5728 5727 5727 5728 5729 5729 5729 5729 5729 5729 5728 5728 5727 5726 5725 5724 5723 5723 5721 5720 5718 5717 5716 5715 5713 5712 5710 5710 5709 5708 5708 5708 5707 5707 5707 5706 5706 5706
5718 5719 5719 5720 5720 5720 5720 5720 5720 5720 5720 5720 5720 5720 5719 5719 5719 5718 5718 5716 5715 5715 5714 5713 5712 5711 5709 5708 5707 5706 5704 5703 5702 5701 5700 5699 5699 5698 5698 5697 5697 5697 5697 5696
5710 5711 5712 5712 5712 5712 5712 5712 5712 5712 5712 5712 5712 5712 5711 5710 5710 5710 5709 5707 5706 5706 5705 5704 5703 5702 5701 5700 5699 5697 5696 5694 5693 5693 5692 5691 5690 5690 5689 5689 5688 5688 5687 5686
5703 5704 5704 5704 5704 5704 5704 5704 5704 5704 5705 5704 5704 5704 5703 5703 5702 5702 5701 5700 5699 5698 5697 5696 5695 5694 5693 5692 5691 5689 5687 5686 5686 5685 5684 5683 5683 5682 5682 5681 5680 5680 5679 5678
5696 5696 5696 5697 5697 5697 5697 5697 5697 5697 5697 5696 5696 5696 5696 5695 5694 5694 5693 5692 5691 5690 5689 5688 5687 5686 5685 5684 5683 5681 5680 5679 5678 5678 5677 5677 5676 5675 5675 5674 5673 5672 5671 5670
5688 5689 5689 5689 5689 5689 5689 5689 5689 5689 5689 5689 5689 5689 5689 5688 5687 5687 5686 5685 5684 5683 5682 5681 5680 5679 5678 5677 5676 5674 5673 5672 5671 5671 5671 5670 5670 5669 5668 5667 5666 5665 5664 5663
5682 5682 5682 5683 5683 5682 5682 5682 5682 5682 5683 5683 5683 5682 5682 5681 5680 5679 5678 5678 5677 5675 5675 5674 5673 5672 5671 5670 5669 5668 5667 5666 5666 5665 5664 5663 5663 5662 5661 5660 5659 5658 5657 5655
5676 5676 5676 5676 5676 5676 5676 5676 5676 5676 5676 5676 5676 5676 5676 5675 5674 5673 5672 5671 5670 5669 5668 5668 5667 5666 5665 5665 5664 5663 5662 5661 5660 5659 5658 5657 5656 5655 5654 5653 5652 5650 5649 5648
5670 5671 5671 5671 5671 5671 5671 5671 5672 5672 5672 5671 5671 5671 5670 5669 5668 5667 5666 5666 5665 5664 5663 5663 5662 5661 5660 5659 5658 5657 5656 5655 5654 5653 5652 5651 5650 5649 5648 5646 5645 5644 5642 5640
5666 5666 5666 5666 5666 5666 5667 5667 5667 5667 5667 5667 5667 5666 5666 5665 5664 5663 5662 5661 5660 5660 5659 5658 5657 5656 5655 5654 5653 5651 5650 5649 5648 5647 5646 5645 5643 5642 5641 5640 5638 5637 5635 5633
5662 5662 5662 5663 5663 5663 5663 5663 5663 5663 5663 5663 5663 5662 5662 5661 5660 5659 5658 5657 5656 5655 5654 5653 5652 5651 5650 5649 5647 5646 5645 5644 5643 5641 5640 5639 5637 5636 5635 5633 5632 5630 5628 5626
5659 5659 5658 5658 5658 5658 5659 5659 5659 5659 5659 5658 5658 5657 5657 5656 5656 5655 5654 5653 5652 5651 5650 5649 5648 5646 5645 5643 5642 5641 5640 5638 5637 5636 5634 5633 5631 5630 5628 5627 5625 5623 5622 5620
5655 5654 5654 5654 5654 5654 5654 5655 5655 5655 5654 5654 5654 5653 5652 5652 5651 5651 5650 5649 5648 5647 5645 5644 5643 5641 5640 5639 5637 5636 5635 5633 5631 5630 5628 5626 5625 5623 5622 5620 5618 5616 5614 5612
Wind_Speed
28 26 26 26 25 26 27 28 28 28 28 27 26 27 27 26 25 23 23 24 24 24 23 23 23 24 24 24 25 25 24 24 24 24 24 24 23 24 24 24 24 24 24 23
29 29 28 28 26 26 28 29 29 28 28 27 26 26 27 27 26 25 26 27 27 26 26 26 26 26 26 26 26 26 27 27 27 27 27 27 26 26 26 26 26 26 26 26
29 30 29 29 28 28 29 30 30 29 28 28 28 28 29 28 28 28 28 28 28 28 29 29 30 29 29 29 29 29 29 29 30 30 30 29 28 29 28 29 29 29 29 29
29 29 31 29 30 30 30 31 31 31 30 30 29 29 29 29 30 30 30 31 31 31 31 31 31 31 32 32 32 32 32 31 32 31 31 32 32 31 31 31 31 31 30 30
31 30 31 30 30 30 31 32 32 32 32 32 32 32 32 31 32 31 31 32 32 32 32 32 32 33 34 34 34 34 34 33 33 33 33 33 33 33 33 33 32 32 32 31
33 32 31 30 30 31 32 33 33 32 33 33 33 33 32 33 33 32 32 32 33 33 33 33 34 34 34 34 34 34 34 34 35 34 34 34 34 34 34 33 33 33 33 33
34 34 33 32 30 30 31 31 31 32 32 33 34 33 33 33 33 33 33 33 33 34 34 34 34 35 35 35 34 34 34 35 35 35 35 35 35 36 36 35 35 35 35 35
35 35 34 32 31 31 31 30 31 31 32 33 34 34 33 33 33 34 34 34 35 34 34 34 34 35 35 34 34 34 34 34 35 36 37 37 37 37 37 36 37 37 38 37
35 34 33 32 31 30 30 30 31 31 32 33 34 34 34 34 34 34 34 34 34 34 34 33 34 34 34 35 34 35 35 35 36 36 37 38 38 37 37 36 36 37 38 37
33 33 33 31 31 30 31 31 32 32 32 33 34 35 35 35 34 33 33 33 34 34 34 35 35 34 33 34 34 34 34 34 34 35 36 36 37 38 37 37 37 37 37 37
32 32 32 31 31 31 32 32 32 33 34 34 34 33 33 34 35 35 34 33 34 35 34 33 33 32 32 32 34 34 34 35 35 35 35 36 36 37 37 37 37 37 37 36
31 32 33 33 32 32 32 32 32 32 32 33 34 34 35 35 35 34 34 34 34 33 33 33 33 33 32 33 34 34 34 34 34 34 35 35 35 35 36 37 37 36 36 35
31 31 32 32 32 32 32 32 33 32 33 33 33 34 34 35 35 34 34 34 34 33 33 33 33 33 33 34 34 34 34 34 34 34 34 34 35 35 35 36 36 36 36 36
31 31 32 33 32 32 33 32 32 32 32 32 32 33 33 33 34 34 35 34 33 34 33 32 33 33 33 33 32 33 33 33 33 34 34 35 35 35 35 35 35 35 36 36
29 30 31 32 32 32 32 32 30 30 30 31 31 32 32 32 33 34 34 34 33 32 32 32 32 31 30 30 30 30 31 31 32 33 34 34 34 34 34 34 33 33 34 34
29 29 30 30 30 31 31 31 30 30 30 30 31 31 31 31 31 31 32 32 31 31 30 30 30 29 28 28 28 28 29 30 30 31 31 31 31 31 31 31 31 32 32 32
28 29 29 29 29 29 29 30 29 28 29 29 29 30 30 30 29 28 28 29 29 29 29 29 28 28 28 27 27 27 28 28 28 28 28 28 28 28 29 28 29 29 29 28
25 26 27 27 27 27 27 27 27 27 27 27 27 27 26 26 25 26 27 27 28 28 28 28 27 27 27 27 27 27 26 26 26 26 26 25 25 25 25 25 25 25 26 26
24 25 25 25 25 25 26 26 26 26 25 25 25 25 25 24 24 24 25 25 25 26 25 25 25 25 25 25 25 24 24 24 24 24 23 23 23 23 22 22 22 23 23 23
22 22 22 22 22 23 24 24 24 24 24 23 23 24 23 23 22 23 23 23 23 23 23 22 22 22 22 22 22 22 21 21 21 21 21 21 20 20 20 21 21 21 22 23
20 19 19 19 20 21 21 22 22 22 21 21 22 22 22 21 21 21 21 22 21 21 20 20 20 20 19 19 18 18 18 18 18 19 19 19 20 20 21 22 22 23 23 23
17 17 18 17 17 17 17 17 17 17 17 18 18 18 18 19 20 20 19 18 18 17 17 17 17 18 18 18 18 17 17 17 17 17 17 19 19 20 21 21 21 21 22 22
16 16 16 16 16 15 14 14 14 14 14 14 15 16 16 17 17 17 16 16 15 15 15 15 16 16 16 16 16 16 16 16 16 17 17 17 17 18 19 19 20 20 21 22
13 13 13 13 13 13 13 12 13 14 14 14 13 14 14 13 13 13 13 13 14 15 15 14 14 15 15 15 15 15 16 16 16 17 17 17 17 18 19 19 20 21 22 22
11 12 12 12 12 12 12 12 12 13 13 13 13 13 13 13 13 13 12 12 13 13 13 14 15 15 15 15 15 15 15 15 16 16 17 16 16 17 18 19 20 21 21 21
10 11 12 12 12 12 12 12 12 12 13 13 13 13 13 13 13 13 12 12 12 13 13 14 14 15 15 15 15 15 15 16 17 17 17 17 17 18 19 20 21 21 21 22
10 10 9 10 10 10 11 11 11 12 12 12 12 12 12 13 13 13 13 13 13 13 13 13 14 14 14 15 15 15 16 16 16 17 17 17 18 19 19 20 21 21 22 22
Wind_Direction
251 248 246 243 244 244 245 248 252 255 257 260 262 266 268 271 272 268 270 271 275 276 276 276 278 280 282 281 278 276 275 274 275 275 274 273 273 273 273 273 274 275 274 273
251 249 248 247 246 245 245 248 251 254 256 258 261 263 265 268 271 273 275 274 276 277 277 276 276 276 277 277 276 275 273 272 272 272 272 272 269 270 272 274 274 274 275 275
249 249 248 245 245 245 247 247 250 255 257 259 261 263 266 270 272 273 274 276 276 277 277 278 276 275 275 276 277 275 274 273 274 273 272 273 273 273 273 274 274 273 273 273
251 250 247 244 244 246 248 250 252 255 257 260 264 266 267 268 270 269 271 272 274 276 276 277 278 277 275 276 276 275 274 274 273 273 273 273 275 274 273 273 273 273 272 272
253 254 250 246 245 247 249 250 253 255 257 260 265 267 267 268 269 271 273 274 274 275 276 277 279 278 276 275 275 274 273 273 272 272 273 274 274 274 273 272 273 271 270 271
254 255 254 252 249 250 251 252 252 255 258 260 263 266 267 269 271 272 273 273 273 274 275 277 278 278 277 276 276 275 274 273 272 273 273 273 274 273 272 272 272 271 270 271
256 257 257 258 255 253 253 255 256 258 259 261 263 267 270 270 270 270 271 271 272 273 275 276 277 277 278 277 276 276 275 273 273 272 272 273 273 272 271 271 271 272 273 272
255 257 258 259 258 256 256 257 258 260 262 263 264 266 268 270 271 270 271 272 273 273 274 276 276 276 277 276 276 276 274 272 272 272 272 272 271 271 270 271 272 273 272 273
255 257 258 258 259 258 258 258 259 261 262 263 264 265 266 268 268 270 271 273 273 273 273 275 275 276 275 275 274 274 274 273 272 271 271 271 271 270 269 270 271 272 273 274
254 255 258 259 260 259 260 260 261 261 262 263 265 265 265 267 268 269 271 273 275 275 276 275 275 277 277 275 274 274 274 273 273 273 272 272 273 272 271 271 271 272 273 273
253 254 256 258 260 261 262 262 263 262 263 265 264 264 267 269 270 272 274 274 275 277 278 277 276 275 276 276 276 276 275 274 273 272 273 273 273 272 272 272 273 272 273 274
254 256 259 261 263 265 265 265 265 265 264 265 265 266 268 270 271 273 276 276 277 277 276 277 278 277 276 275 275 275 275 274 273 273 273 273 274 273 272 273 274 274 273 274
255 258 260 263 265 266 266 265 265 265 265 265 265 267 270 271 273 274 276 278 277 277 278 278 277 276 277 277 275 274 274 274 273 272 273 273 274 276 276 276 275 273 272 273
256 260 262 264 265 266 267 267 266 266 266 267 269 270 272 273 274 275 277 278 276 277 278 279 278 277 277 276 276 276 274 274 273 273 273 273 273 276 277 276 276 276 275 275
257 260 262 263 264 264 266 268 270 268 268 269 271 273 273 274 275 275 276 278 277 278 278 278 278 277 278 277 277 277 276 274 274 275 275 273 274 274 276 276 276 277 278 278
257 259 261 264 265 265 266 266 267 267 270 271 272 274 274 275 275 276 277 278 277 276 276 277 277 277 278 277 278 278 277 276 276 276 276 275 274 274 276 277 278 279 279 278
257 260 262 264 265 266 266 266 267 269 270 272 273 274 275 276 277 277 278 277 277 277 277 277 276 275 275 276 277 278 278 278 277 276 274 274 275 276 277 277 278 279 280 280
258 261 262 264 264 266 269 269 268 269 271 272 272 273 274 275 276 277 277 277 278 277 277 275 274 273 273 274 275 276 276 276 275 274 273 273 275 277 277 278 280 281 282 282
262 265 265 266 267 267 270 270 269 270 271 272 273 274 275 276 276 277 276 277 278 278 276 275 274 272 273 275 275 275 275 274 272 271 271 274 276 278 278 279 281 280 280 280
263 264 264 266 268 267 268 269 267 266 268 270 273 274 274 275 277 277 277 277 279 278 276 274 274 275 277 277 278 277 276 275 275 274 273 275 276 277 279 280 281 283 282 282
261 262 264 267 268 269 268 267 267 266 266 267 270 272 272 274 276 277 278 278 279 278 275 273 273 276 277 278 279 280 279 277 276 277 276 276 277 277 279 281 282 282 283 284
258 261 264 267 270 271 269 267 266 264 264 267 270 273 275 277 276 277 278 278 278 278 275 275 278 280 281 281 281 279 279 280 279 279 278 278 277 278 279 282 285 286 287 288
261 264 265 267 269 270 268 267 266 266 267 271 275 275 276 279 279 278 279 278 276 277 279 280 282 284 285 285 283 280 280 281 281 281 281 281 282 283 285 288 289 290 291 291
263 266 267 267 268 269 267 266 267 267 268 272 276 278 281 282 280 281 281 279 277 278 279 280 284 288 289 288 286 285 283 283 283 283 282 285 287 288 290 291 291 291 291 291
263 266 267 268 271 269 266 264 267 269 271 274 277 280 280 281 283 284 285 284 283 284 285 286 288 289 288 287 287 288 288 288 288 288 288 289 292 293 295 295 295 294 294 293
268 267 268 268 268 266 264 263 265 270 273 275 276 276 276 279 281 283 284 286 286 286 288 290 291 292 291 289 288 290 292 293 294 294 294 294 295 295 295 295 295 294 294 295
278 277 273 267 265 264 261 260 265 270 274 277 278 276 277 280 281 282 284 287 290 291 292 293 294 294 293 292 291 291 293 294 295 297 296 294 295 296 296 296 296 297 296 296